Starlink 5989

operational
NORAD ID: 56781 Int'l Des: 2023-078 Owner: SPXS Country: US Constellation: starlink
LEOCIRCULAR

Über Starlink 5989

Beschreibung wird geladen...

Live-Position

3D-Globus wird geladen...

Nächste Überflüge

Höhenverlauf

Altitude vs Time

uPlot chart will show altitude changes over time

Zweizeiliger Elementsatz

1 56781U 23078Q 25353.54625193 .00002380 00000-0 20715-3 0 9991
2 56781 69.9977 186.5981 0003245 269.8190 90.2597 14.98341677140673
Epoch: 19. Dez. 2025 • Age: 9 hours

Aktueller Status

Höhe 581.1 km
Geschwindigkeit 7.57 km/s
Subsatellitenpunkt 49.41°N, 73.27°W
Startdatum 31. Mai 2023
Alter 2.5 years
Typ internet

Technische Details

Klassifizierung Payload
Masse 305.00 kg
Trockenmasse 290.00 kg
Gesamtmasse 305.00 kg
Länge 0.20 m
Durchmesser 2.80 m
Spannweite 9.00 m
Form Box + pan
Hersteller SPXS
Bus-Typ Starlink
Phasenstatus In Orbit
Besitzer/Staat SPXS/US

Große Konstellationen

Loading constellations...